Regional Weather Roundup
Issued by NWS

Home | Current Version | Previous Version | Text Only | Print | Product List | Glossary On
Versions: 1 2 3 4 5 6 7 8 9 10 11 12 13 14 15 16 17 18 19 20 21 22 23 24 25 26 27 28 29 30 31 32 33 34 35 36 37 38 39 40 41 42 43 44 45 46 47 48 49 50
000
ASUS44 KFWD 270615
RWRTX
NORTH TEXAS HOURLY WEATHER ROUNDUP
NATIONAL WEATHER SERVICE FORT WORTH TX
100 AM CDT WED MAY 27 2015

NOTE: "FAIR" INDICATES FEW OR NO CLOUDS BELOW 12,000 FEET WITH NO
SIGNIFICANT WEATHER AND/OR OBSTRUCTIONS TO VISIBILITY.

TXZ118-119-270700-
DALLAS/FORT WORTH METROPLEX

CITY           SKY/WX    TMP DP  RH WIND       PRES   REMARKS
DFW AIRPORT    TSTM      65  62  90 S28G36    29.93F
6HR MIN TEMP:  64; 6HR MAX TEMP:  78; 6HR PCP:  0.42;

DALLAS LOVE    TSTM      71  60  68 S22G36    30.00S
6HR MIN TEMP:  67; 6HR MAX TEMP:  81; 6HR PCP:  0.26;

FTW MEACHAM    CLOUDY    72  58  61 S20G25    29.95F
6HR MIN TEMP:  67; 6HR MAX TEMP:  80; 6HR PCP:  0.59;

DAL-EXECUTIVE    N/A    N/A N/A N/A MISG      30.05R THUNDER
FTW-ALLIANCE   CLOUDY    70  58  65 S8        29.97F
6HR MIN TEMP:  66; 6HR MAX TEMP:  77; 6HR PCP:  0.04;

FTW-NAS-JRB    CLOUDY    72  58  61 S18G28    29.96F THUNDER
6HR MIN TEMP:  68; 6HR MAX TEMP:  80; 6HR PCP:  0.21;

FTW-SPINKS     TSTM      66  61  84 S26G38    30.02F
ARLINGTON      LGT RAIN  67  61  81 SE21G32   30.03F
6HR MIN TEMP:  65; 6HR MAX TEMP:  80; 6HR PCP:  0.56;

GRAND PRAIRIE  CLOUDY    65  65  99 S18G29    30.05S
6HR MIN TEMP:  63; 6HR MAX TEMP:  79; 6HR PCP:  1.60;

ADDISON        CLOUDY    73  61  66 S13G30    29.98F THUNDER
6HR MIN TEMP:  69; 6HR MAX TEMP:  82; 6HR PCP:  0.05;

MESQUITE       CLOUDY    71  58  64 SW30G37   30.01R
LANCASTER      CLOUDY    67  60  78 SW15G21   30.10R
$$

TXZ091>094-102>105-117-120-121-131>134-270700-
NORTH CENTRAL TEXAS

CITY           SKY/WX    TMP DP  RH WIND       PRES   REMARKS
SHRMAN/DENISON CLOUDY    72  61  69 E3        29.99R
6HR MIN TEMP:  71; 6HR MAX TEMP:  77;

GAINESVILLE    CLOUDY    67  59  74 S13       29.97F
6HR MIN TEMP:  67; 6HR MAX TEMP:  75;

BOWIE          CLOUDY    65  62  88 S8        29.96F
6HR MIN TEMP:  65; 6HR MAX TEMP:  73; 6HR PCP:  0.01;

BRIDGEPORT     CLOUDY    65  63  91 CALM      29.98F
6HR MIN TEMP:  65; 6HR MAX TEMP:  75; 6HR PCP:  0.10;

DECATUR        CLOUDY    67  59  75 S9        29.97F
6HR MIN TEMP:  66; 6HR MAX TEMP:  76; 6HR PCP:  0.04;

DENTON         CLOUDY    68  60  75 S9        29.97F
6HR MIN TEMP:  67; 6HR MAX TEMP:  82; 6HR PCP:  0.08;

MCKINNEY       CLOUDY    73  59  61 SW15G22   29.96R
6HR MIN TEMP:  72; 6HR MAX TEMP:  82; 6HR PCP:  0.03;

GREENVILLE     CLOUDY    72  59  64 SE9       30.02R
ROCKWALL       CLOUDY   N/A N/A N/A SW21G26   29.97S THUNDER
                                      6HR PCP:  0.04;

TERRELL        TSTM      70  59  68 S24G37    30.04R
6HR MIN TEMP:  67; 6HR MAX TEMP:  78; 6HR PCP:  0.56;

WAXAHACHIE     RAIN      64  64 100 SW14      30.14R
CLEBURNE       LGT RAIN  64  64 100 SE20G26   30.06F
GRANBURY       CLOUDY    69  59  69 SE18G28   29.99R
6HR MIN TEMP:  66; 6HR MAX TEMP:  80; 6HR PCP:  1.17;

$$

TXZ083>090-098>101-113>116-127>130-139>142-154-155-270700-
WESTERN NORTH TEXAS

CITY           SKY/WX    TMP DP  RH WIND       PRES   REMARKS
WICHITA FALLS  CLOUDY    67  60  78 S15       29.93F
6HR MIN TEMP:  66; 6HR MAX TEMP:  72; 6HR PCP:  0.04;

WF-KICKAPOO    CLOUDY    69  62  78 S9        29.95S
6HR MIN TEMP:  69; 6HR MAX TEMP:  74;

VERNON         PTCLDY    65  54  68 S9        29.97F
6HR MIN TEMP:  58; 6HR MAX TEMP:  88;

ABILENE        PTCLDY    65  60  84 SE12      30.01F
6HR MIN TEMP:  65; 6HR MAX TEMP:  89; 6HR PCP: TRACE;

ABILENE-DYESS  PTCLDY    65  59  80 S8        30.00F
6HR MIN TEMP:  65; 6HR MAX TEMP:  89; 6HR PCP:  0.02;

BRECKENRIDGE   CLOUDY    67  62  82 S17G23    29.98R
6HR MIN TEMP:  65; 6HR MAX TEMP:  67;

GRAHAM         CLOUDY    65  63  93 CALM      29.95S
6HR MIN TEMP:  65; 6HR MAX TEMP:  70;

MINERAL WELLS  CLOUDY    67  59  75 SE7       29.96R
6HR MIN TEMP:  66; 6HR MAX TEMP:  76; 6HR PCP:  0.32;

STEPHENVILLE   CLOUDY    66  58  75 SE9       30.07R
COMANCHE       TSTM      65  64  97 SE3       30.07R
6HR MIN TEMP:  64; 6HR MAX TEMP:  84;

BROWNWOOD      LGT RAIN  64  64 100 E12G24    30.06R
COLEMAN        MOCLDY    67  63  85 E8        30.04S
6HR MIN TEMP:  67; 6HR MAX TEMP:  83;

$$

TXZ143>147-156>162-174-175-270700-
CENTRAL TEXAS

CITY           SKY/WX    TMP DP  RH WIND       PRES   REMARKS
WACO           TSTM      64  63  96 NE18      30.08F
6HR MIN TEMP:  65; 6HR MAX TEMP:  84; 6HR PCP:  0.26;

WACO-MCGREGOR    N/A    N/A N/A N/A MISG        N/A
HILLSBORO      TSTM     N/A N/A N/A E9        30.13F
                                      6HR PCP:  0.74;

CORSICANA      TSTM      67  62  84 NW10G20   30.14R
6HR MIN TEMP:  66; 6HR MAX TEMP:  83; 6HR PCP:  0.65;

MEXIA          CLOUDY    75  72  90 CALM      30.09R
6HR MIN TEMP:  75; 6HR MAX TEMP:  82; 6HR PCP:  0.10;

HEARNE         CLOUDY    76  73  90 E6        30.05S
6HR MIN TEMP:  76; 6HR MAX TEMP:  83;

CAMERON        CLOUDY    77  74  88 CALM      30.05R
6HR MIN TEMP:  77; 6HR MAX TEMP:  84;

TEMPLE         CLOUDY    75  70  83 NE6       30.06R
6HR MIN TEMP:  75; 6HR MAX TEMP:  84;

KILLEEN        CLOUDY    72  64  78 N9        30.06R
6HR MIN TEMP:  75; 6HR MAX TEMP:  84;

KILLEEN-SKYLRK CLOUDY    75  72  88 CALM      30.06R
6HR MIN TEMP:  75; 6HR MAX TEMP:  86;

FORT HOOD      CLOUDY    72  63  73 N10       30.05R HAZE
                                      6HR PCP: TRACE;

GATESVILLE     CLOUDY    64  64 100 CALM      30.07F
HAMILTON       CLOUDY    66  64  94 E7        30.07S
LAMPASAS       CLOUDY    72  66  81 NE9G16    30.06R
6HR MIN TEMP:  72; 6HR MAX TEMP:  84;

$$

TXZ095>097-106>112-122>126-135>138-148>153-164>167-270700-
EAST TEXAS

CITY           SKY/WX    TMP DP  RH WIND       PRES   REMARKS
PARIS          CLOUDY    73  66  78 S14       30.02S
6HR MIN TEMP:  73; 6HR MAX TEMP:  79;

SULPHUR SPRNGS CLOUDY    70  63  78 SE6       30.06R THUNDER
MOUNT PLEASANT CLOUDY    70  60  68 SW5       30.06R
6HR MIN TEMP:  70; 6HR MAX TEMP:  78;

GILMER         TSTM      67  63  86 SW13G18   30.09R
6HR MIN TEMP:  64; 6HR MAX TEMP:  82; 6HR PCP:  1.11;

MINEOLA        TSTM      64  64 100 S16G25    30.08R
TYLER          TSTM      67  62  84 N12       30.14R
6HR MIN TEMP:  64; 6HR MAX TEMP:  82; 6HR PCP:  0.52;

LONGVIEW       CLOUDY    71  64  78 N5        30.08S
6HR MIN TEMP:  70; 6HR MAX TEMP:  82; 6HR PCP:  0.11;

MARSHALL       CLOUDY    73  71  91 W3        30.10S
6HR MIN TEMP:  73; 6HR MAX TEMP:  83; 6HR PCP:  0.40;

ATHENS         TSTM      63  63 100 NE6       30.10F
PALESTINE      CLOUDY    75  71  89 NE3       30.11R
JACKSONVILLE   CLOUDY    74  71  90 SW3       30.12R
NACOGDOCHES    CLOUDY    72  70  94 CALM      30.07S
6HR MIN TEMP:  72; 6HR MAX TEMP:  79;

LUFKIN         CLOUDY    75  70  84 E3        30.06R
6HR MIN TEMP:  75; 6HR MAX TEMP:  82;

$$

SUPPLEMENTAL OBSERVATIONS (CENTRAL)

CITY           SKY/WX    TMP DP  RH WIND       PRES   REMARKS
CADDO GRASSLND   N/A     73  68  83 S6          N/A
PAT MAYSE LAKE   N/A     73  72  94 SE12        N/A
GREENVILLE       N/A    N/A N/A N/A SE6         N/A
CEDAR HILL       N/A     64  61  88 S18G26      N/A
LAKE LIMESTONE   N/A     75  70  83 SE1         N/A
MCGREGOR         N/A     64  61  88 NE12G32     N/A
$$

SUPPLEMENTAL OBSERVATIONS (WEST)

CITY           SKY/WX    TMP DP  RH WIND       PRES   REMARKS
MILLERS CREEK    N/A     66  63  88 S8G17       N/A
LBJ GRASSLAND    N/A     68  63  83 S6          N/A
HAMBY            N/A     66  59  77 SE8         N/A
IVIE RESERVOIR   N/A     75  66  73 E10         N/A
COLORADO BEND    N/A     75  70  83 S8          N/A
$$

SUPPLEMENTAL OBSERVATIONS (EAST)

CITY           SKY/WX    TMP DP  RH WIND       PRES   REMARKS
CLARKSVILLE      N/A     73  68  83 S8G17       N/A
TEXARKANA        N/A     72  68  88 SE2         N/A


USA.gov is the U.S. government's official web portal to all federal, state and local government web resources and services.